Location: Brede
(50.9167°N, 0.6000°E)
Time: 02:54:09
(UTC+00:00)

IRS-P3 - Pass Details

Date: 08 August 2020
Orbit: 814 x 819 km, 98.9° (Epoch: 25 September)

Event Time Altitude Azimuth Distance (km) Brightness Sun altitude
Rises 02:43:30 0° 15° (NNE) 3,363 8.6 -14.4°
Reaches altitude 10° 02:45:52 10° 16° (NNE) 2,426 7.7 -14.2°
Maximum altitude 02:51:15 86° 107° (ESE) 829 4.2 -13.7°
Enters shadow 02:55:46 15° 195° (SSW) 2,083 5.7 -13.2°
